This demonstration page uses our WeatherBlox Daily Observations layout. Learn more.

Left ArrowRight Arrow

41.86663, -103.66717

Hourly Observations for May 9, 2021

Temp ( °F °C ) Dew Point ( °F °C ) Humidity (%) Winds ( mph kmh ) Pressure ( in mb ) Visibility ( mi km ) Precip ( " mm )
12:53 am 00:53 Cloudy 41 5 33 0.6 73 73 N N/A 30.01 1016 10 16.0934 N/A
1:53 am 01:53 Cloudy 39 3.9 32 undefined 76 76 N 5 7 30 1016 10 16.0934 N/A
2:53 am 02:53 Mostly Cloudy 37 2.8 32 undefined 82 82 NNE 7 11 30.01 1016 10 16.0934 N/A
3:53 am 03:53 Clear 34 1.1 30 -1.1 85 85 NNE 9 15 30.03 1017 10 16.0934 N/A
4:19 am 04:19 Mostly Cloudy 35 1.7 30 -1.1 82 82 ENE 3 6 30.15 1021 10 16.0934 N/A
4:49 am 04:49 Partly Cloudy 34 1 30 -1 87 87 SSW 3 6 30.17 1022 10 16.0934 N/A
4:53 am 04:53 Mostly Clear 34 1.1 30 -1.1 85 85 SSW 5 7 30.05 1018 10 16.0934 N/A
5:53 am 05:53 Partly Cloudy 32 undefined 28 -2.2 85 85 N N/A 30.08 1019 10 16.0934 N/A
6:06 am 06:06 Mostly Cloudy 32 undefined 28 -2.2 85 85 NE 3 6 30.2 1023 10 16.0934 N/A
6:53 am 06:53 Cloudy 38 3.3 35 1.7 89 89 N N/A 30.1 1019 10 16.0934 N/A
7:50 am 07:50 Partly Cloudy 43 6 36 2 76 76 W 3 6 30.13 1020 10 16.0934 N/A
7:53 am 07:53 Mostly Sunny 43 6.1 34 1.1 71 71 N N/A 30.1 1019 10 16.0934 N/A
8:53 am 08:53 Partly Cloudy 46 7.8 32 undefined 58 58 N N/A 30.1 1019 10 16.0934 N/A
9:23 am 09:23 Mostly Cloudy 47 8.3 31 -0.6 54 54 VRB 6 9 30.08 1019 10 16.0934 N/A
9:32 am 09:32 Partly Cloudy 46 7.8 31 -0.6 56 56 N 3 6 30.1 1019 10 16.0934 N/A
9:53 am 09:53 Sunny 49 9.4 30 -1.1 48 48 ENE 6 9 30.08 1019 10 16.0934 N/A
10:53 am 10:53 Sunny 53 11.7 29 -1.7 40 40 NNE 8 13 30.08 1019 10 16.0934 N/A
11:53 am 11:53 Mostly Sunny 54 12.2 27 -2.8 35 35 VRB 6 9 30.06 1018 10 16.0934 N/A
12:53 pm 12:53 Sunny 56 13.3 23 -5 28 28 N N/A 30.04 1017 10 16.0934 N/A
1:53 pm 13:53 Sunny 58 14.4 20 -6.7 23 23 VRB 6 9 30.02 1017 10 16.0934 N/A
3:53 pm 15:53 Sunny 62 16.7 16 -8.9 17 17 W 7 11 29.98 1015 10 16.0934 N/A
4:53 pm 16:53 Cloudy 59 15 16 -8.9 18 18 S 5 7 29.99 1016 10 16.0934 N/A
5:53 pm 17:53 Cloudy 57 13.9 18 -7.8 22 22 WSW 10 17 30.01 1016 10 16.0934 N/A
6:53 pm 18:53 Cloudy 56 13.3 20 -6.7 24 24 SW 7 11 30.02 1017 10 16.0934 N/A
7:53 pm 19:53 Cloudy 53 11.7 29 -1.7 40 40 S 9 15 30.04 1017 10 16.0934 N/A
8:53 pm 20:53 Cloudy 49 9.4 32 undefined 52 52 SSW 14 22 30.08 1019 10 16.0934 N/A
9:53 pm 21:53 Mostly Cloudy 47 8.3 34 1.1 61 61 SSW 6 9 30.11 1020 10 16.0934 N/A
10:53 pm 22:53 Cloudy 47 8.3 34 1.1 61 61 N N/A 30.11 1020 10 16.0934 N/A
11:53 pm 23:53 Partly Cloudy 46 7.8 34 1.1 63 63 S 6 9 30.1 1019 10 16.0934 N/A

Powered by AerisWeather